Regional Weather Roundup
Issued by NWS

Home | Current Version | Previous Version | Graphics & Text | Print | Product List | Glossary On
Versions: 1 2 3 4 5 6 7 8 9 10 11 12 13 14 15 16 17 18 19 20 21 22 23 24 25 26 27 28 29 30 31 32 33 34 35 36 37 38 39 40 41 42 43 44 45 46 47 48 49 50
000
ASUS44 KLUB 030801
RWRTX
WEST TEXAS WEATHER ROUNDUP
NATIONAL WEATHER SERVICE LUBBOCK TX
200 AM CST TUE MAR 03 2015

NOTE: "FAIR" INDICATES FEW OR NO CLOUDS BELOW 12,000 FEET WITH NO
SIGNIFICANT WEATHER AND/OR OBSTRUCTIONS TO VISIBILITY.

TXZ004-006>008-010-012-014-016-OKZ002-030900-
TEXAS PANHANDLE/OKLAHOMA PANHANDLE

CITY           SKY/WX    TMP DP  RH WIND       PRES   REMARKS
AMARILLO       CLOUDY    34  32  92 S28G33    29.84F FOG     WCI  21
BORGER         PTCLDY    37  32  82 SW9       29.82F WCI  30
CANADIAN       CLEAR     38  35  87 SW16      29.81F WCI  29
DALHART        MOCLDY    36  33  89 SW14      29.81S WCI  27
DUMAS          CLEAR     35  33  92 SW14      29.80F WCI  26
GUYMON         MOCLDY    41  35  79 SW14      29.74R
$$

TXZ026-029-035-045-048-030900-
SOUTHERN PANHANDLE/SOUTH PLAINS/ROLLING PLAINS

CITY           SKY/WX    TMP DP  RH WIND       PRES   REMARKS
CHILDRESS      CLOUDY    37  35  92 S14       29.97F WCI  28
SEMINOLE       FOG       37  37 100 SW6       29.98F VSB 1/2 WCI  32
LUBBOCK        CLOUDY    35  35 100 S16       29.93F FOG     WCI  25
$$

TXZ052-054-060>062-072-078-127-140-154-169-030900-
PERMIAN BASIN/CONCHO VALLEY/BIG COUNTRY/EDWARDS PLATEAU

CITY           SKY/WX    TMP DP  RH WIND       PRES   REMARKS
ABILENE        CLOUDY    38  37  97 S7        30.05F FOG     WCI  33
BIG SPRING     CLOUDY   N/A N/A N/A SE7       30.01F
BRADY          FOG       37  37 100 SE3       30.06S VSB 1/4
JUNCTION       FOG       40  40 100 CALM      30.06F VSB 1/2
MIDLAND        FOG       39  38  96 SE8       29.97F VSB 1/2 WCI  33
ODESSA         FOG       40  38  93 S9        29.97F VSB 1/2 WCI  34
SAN ANGELO     FOG       39  38  96 CALM      30.05F VSB 1/2
WINK           CLOUDY    41  36  82 S5        29.98F
$$

TXZ055-058-074-075-080-082-030900-
FAR WEST/SOUTHWEST MOUNTAINS/TRANS PECOS

CITY           SKY/WX    TMP DP  RH WIND       PRES   REMARKS
ALPINE         MOCLDY    49  37  61 SW6       30.03F
DRYDEN           N/A     45  43  93 CALM      30.02F
EL PASO        CLOUDY    57  44  62 SW9       29.92F
FORT STOCKTON  PTCLDY    38  37  97 SE5       29.96F WCI  34
MARFA          MOCLDY    41  36  81 NW7       30.02F
PECOS          MOCLDY    38  36  91 CALM      29.99F
$$

TXZ014-016-019-021>030-083-030900
TEXAS TECH WEST TEXAS MESONET/TEXAS PANHANDLE/NORTHERN SOUTH PLAINS

CITY           SKY/WX    TMP DP  RH WIND       PRES   REMARKS
ABERNATHY 5ENE   N/A     33  33  99 S15       29.95F WCI  23
AMARILLO 9NNE    N/A     36  33  88 S22       29.82S WCI  24
AMARILLO 7SSE    N/A     34  32  95 S18       29.87S WCI  23
AMHERST 1NE      N/A     33  33  99 S14       29.93R WCI  23
BOOTLEG 11WNW    N/A     34  32  94 S12       29.88R WCI  25
CANADIAN 6E      N/A     37  33  87 S12       29.83F WCI  29
CAPROCK CYN SP   N/A     36  34  91 S14       29.92F WCI  27
CHILDRESS 2NNE   N/A     37  35  91 S12       29.95F WCI  29
CLARENDON 2WSW   N/A     34  32  92 S17       29.90S WCI  24
CLAUDE 12SW      N/A     34  32  95 S15       29.90S WCI  24
DIMMITT 2NE      N/A     32  32  99 S23       29.87F WCI  19
FLOYDADA 2NNE    N/A     33  33  99 S17       29.93F WCI  22
FRIONA 2NE       N/A     33  33  98 S15       29.89S WCI  23
GOODLETT 3W      N/A     38  35  88 S14       29.98F WCI  30
HART 3N          N/A     32  32  99 S18       29.91F WCI  21
HEREFORD 2NW     N/A     34  33  97 S16       29.88S WCI  23
MCLEAN 1E        N/A     34  33  96 S23       29.86S WCI  22
MEMPHIS 1NE      N/A     37  34  89 S9        29.96R WCI  30
MULESHOE 2SSW    N/A     35  34  97 S9        29.92S WCI  27
OLTON 6S         N/A     33  32  96 S17       29.92F WCI  22
PALO DURO SP     N/A     34  32  92 S12       29.91R WCI  26
PAMPA 2E         N/A     33  32  95 S18       29.82F WCI  22
PLAINVIEW 1S     N/A     33  33  99 SW16      29.92F WCI  23
SILVERTON 7ESE   N/A     35  33  94 SW14      29.91F WCI  25
TULIA 2ENE       N/A     33  32  99 S16       29.91F WCI  22
TURKEY 2WSW      N/A     36  34  92 S10       29.93F WCI  29
UMBARGER 3NNE    N/A     33  32  97 SW18      29.88R WCI  22
$$

TXZ033>036-039>041-045>048-030900
TEXAS TECH WEST TEXAS MESONET/SOUTH PLAINS

CITY           SKY/WX    TMP DP  RH WIND       PRES   REMARKS
AIKEN 3WSW       N/A     33  33 100 S15       29.93F WCI  23
ANDREWS 2NE      N/A     38  37  95 S8        29.99S WCI  32
ANTON 6SSW       N/A     34  34  99 S17       29.94F WCI  24
BROWNFIELD 2S    N/A     35  34  99 S10       29.97F WCI  27
DENVR CTY 7WNW   N/A     36  35  99 S15       29.96F WCI  26
GAIL 2ESE        N/A     36  35  97 S8        30.00F WCI  29
LAMESA 2SE       N/A     36  35  99 S8        29.99F WCI  29
LEVELLAND 4S     N/A     35  34  95 S17       29.95F WCI  25
LUBBOCK 3WNW     N/A     35  35  99 S10       29.96F WCI  27
MORTON 1ENE      N/A     34  34  99 S17       29.92F WCI  24
ODONNELL 1N      N/A     35  34  99 S10       29.97F WCI  27
PLAINS 3N        N/A     35  35  99 S16       29.95F WCI  26
RALLS 1SE        N/A     34  34  99 SW12      29.97F WCI  25
REESE CENTER     N/A     34  34  99 S14       29.95F WCI  24
SEAGRAVES 1SW    N/A     36  36  99 S9        29.96F WCI  29
SEMINOLE 2NNE    N/A     37  36  97 S7        29.98F WCI  31
SLATON 2NE       N/A     34  34  99 SW9       29.98S WCI  27
SNYDER 3E        N/A     35  35  99 S9        30.00F WCI  28
SUNDOWN 8SW      N/A     35  35  99 S16       29.94F WCI  26
TAHOKA 3NNE      N/A     35  35 100 SW6       29.97S WCI  30
WOLFFORTH 6SSW   N/A     35  35  99 S14       29.96F WCI  26
$$

TXZ031-032-036>038-042>044-030900-
TEXAS TECH WEST TEXAS MESONET/ROLLING PLAINS

CITY           SKY/WX    TMP DP  RH WIND       PRES   REMARKS
ASPERMONT 3NE    N/A     38  37  95 S7        30.03F WCI  33
FLUVANNA 3WNW    N/A     35  34  98 S12       29.98F WCI  27
GRAHAM 5SSW      N/A     35  34  98 S7        29.97F WCI  29
GUTHRIE 10WSW    N/A     37  35  93 S8        29.99F WCI  31
HASKELL 1NW      N/A     37  36  97 S10       30.01F WCI  30
KNOX CITY 3NW    N/A     38  35  89 S10       30.03F WCI  31
LK A HENRY 1NW   N/A     37  36  95 SW3       30.00F
NORTHFIELD 1S    N/A     37  35  93 S7        29.96F WCI  32
ODELL 4ENE       N/A     37  35  92 S12       30.01F WCI  29
PADUCAH 10SW     N/A     37  35  94 S13       29.99S WCI  28
POST 1NE         N/A     36  36  99 S5        29.98F WCI  32
RRING SPRGS 3N   N/A     36  35  97 S17       29.93F WCI  26
SEYMOUR 3NW      N/A     37  34  90 S12       30.02F WCI  29
SPUR 1W          N/A     35  35  98 SW7       29.98F WCI  30
WEINERT 2NNE     N/A     37  35  91 S10       30.02F WCI  30
WHITE RVR 6NE    N/A     34  34  98 S10       29.97F WCI  26
$$

TXZ052-054-060>062-072-078-127-140-154-169-030900-
TEXAS TECH WEST TEXAS MESONET/PERMIAN BASIN/
CONCHO VALLEY/BIG COUNTRY/EDWARDS PLATEAU

CITY           SKY/WX    TMP DP  RH WIND       PRES   REMARKS
COYANOSA 2N      N/A     39  37  94 W3        30.00S
JUNCTION 1SSW    N/A     40  39  99 N1        30.07F
MERTZON 3NNE     N/A     37  37  98 CALM      30.06F
SAN ANGELO 7NW   N/A     38  36  94 E1        30.07S
STRLNG CT 4WSW   N/A     37  36  97 E5        30.03F WCI  33
ST LAWRNCE 5SW   N/A     37  39 100 SE9       30.00F WCI  31
WALL 1E          N/A     37  36  94 NE2       30.07F
$$

TXZ055-058-074-075-080-082-030900-
TEXAS TECH WEST TEXAS MESONET/FAR WEST/SOUTHWEST MOUNTAINS/TRANS PECOS

CITY           SKY/WX    TMP DP  RH WIND       PRES   REMARKS
$$


USA.gov is the U.S. government's official web portal to all federal, state and local government web resources and services.